GLOBALSTAR M069 1 31573U 07020C 26247.86877196 -.00000075 00000+0 16013-3 0 9997 2 31573 52.0049 26.5929 0001212 329.7330 195.4992 12.23473651888554 GLOBALSTAR M072 1 31574U 07020D 26248.06693808 -.00000065 00000+0 26319-3 0 9996 2 31574 51.9906 247.5850 0001331 100.3342 300.5962 11.91660052884505 GLOBALSTAR M066 1 32265U 07048C 26248.08296176 -.00000101 00000+0 -51704-4 0 9992 2 32265 51.9580 188.5540 0004379 207.9012 163.5432 12.30391477870065 GLOBALSTAR M079 1 37188U 10054A 26248.18037505 -.00000087 00000+0 91234-4 0 9996 2 37188 52.0019 225.1592 0000362 114.5976 256.6522 12.62267302732658 GLOBALSTAR M074 1 37189U 10054B 26248.20733633 -.00000093 00000+0 59925-4 0 9993 2 37189 51.9997 224.3311 0000234 59.6856 313.3117 12.62263032733261 GLOBALSTAR M076 1 37190U 10054C 26248.17013801 -.00000110 00000+0 -32095-4 0 9999 2 37190 52.0016 224.6551 0000155 129.0867 314.8033 12.62263456732972 GLOBALSTAR M077 1 37191U 10054D 26247.68170565 -.00000063 00000+0 28027-3 0 9991 2 37191 51.9992 337.5283 0002363 326.1027 202.9066 11.67547970730422 GLOBALSTAR M075 1 37192U 10054E 26248.08860462 -.00000090 00000+0 75297-4 0 9991 2 37192 51.9933 266.9133 0000375 86.6513 287.6634 12.62260427732031 GLOBALSTAR M073 1 37193U 10054F 26248.19593640 -.00000099 00000+0 26898-4 0 9997 2 37193 52.0054 180.7456 0000386 92.4605 48.3647 12.62267893734030 GLOBALSTAR M083 1 37739U 11033A 26248.13528411 -.00000111 00000+0 -41846-4 0 9995 2 37739 51.9849 129.0518 0000603 95.9667 69.0580 12.62258779703045 GLOBALSTAR M088 1 37740U 11033B 26247.86936071 -.00000107 00000+0 -18273-4 0 9994 2 37740 52.0227 36.4773 0000742 91.4092 64.9344 12.62270154698552 GLOBALSTAR M091 1 37741U 11033C 26247.29908141 -.00000100 00000+0 19831-4 0 9992 2 37741 52.0026 1.0644 0000828 104.8303 278.6544 12.62264630699272 GLOBALSTAR M085 1 37742U 11033D 26248.15708544 -.00000088 00000+0 89118-4 0 9994 2 37742 52.0139 309.8176 0000655 116.5788 267.5956 12.62265004699890 GLOBALSTAR M081 1 37743U 11033E 26248.18455454 -.00000089 00000+0 80042-4 0 9995 2 37743 51.9972 312.0782 0000460 124.0356 265.2443 12.62265978700048 GLOBALSTAR M089 1 37744U 11033F 26248.06666323 -.00000079 00000+0 13840-3 0 9992 2 37744 51.9914 266.5802 0000141 37.4673 356.9674 12.62263283700878 GLOBALSTAR M084 1 38040U 11080A 26248.10820376 -.00000097 00000+0 37357-4 0 9999 2 38040 52.0001 133.9747 0000402 57.9109 105.4526 12.62263977678858 GLOBALSTAR M080 1 38041U 11080B 26248.15955666 -.00000108 00000+0 -21355-4 0 9991 2 38041 52.0052 135.5676 0001081 73.8181 91.0390 12.62258530678987 GLOBALSTAR M082 1 38042U 11080C 26247.82438753 -.00000106 00000+0 -10544-4 0 9994 2 38042 52.0067 92.0930 0000969 89.2450 283.7326 12.62262696679650 GLOBALSTAR M092 1 38043U 11080D 26248.22924472 -.00000095 00000+0 49469-4 0 9992 2 38043 52.0078 181.2623 0000478 59.8017 113.0441 12.62268357678157 GLOBALSTAR M090 1 38044U 11080E 26248.04391294 -.00000106 00000+0 -12991-4 0 9997 2 38044 52.0113 85.4058 0000921 97.9337 71.9216 12.62268187679790 GLOBALSTAR M086 1 38045U 11080F 26247.98369660 -.00000099 00000+0 26972-4 0 9996 2 38045 51.9887 85.3866 0000719 186.3510 337.2468 12.62289010679733 GLOBALSTAR M097 1 39072U 13005A 26248.05942677 -.00000109 00000+0 -31584-4 0 9998 2 39072 52.0071 0.1948 0000780 110.2275 249.8675 12.62271270626996 GLOBALSTAR M093 1 39073U 13005B 26247.71613096 -.00000096 00000+0 42404-4 0 9998 2 39073 52.0134 354.6201 0000848 124.6216 235.4730 12.62266882626902 GLOBALSTAR M094 1 39074U 13005C 26248.19114884 -.00000086 00000+0 10014-3 0 9993 2 39074 51.9943 267.2140 0000445 125.9342 234.1566 12.62264706628578 GLOBALSTAR M096 1 39075U 13005D 26248.20444361 -.00000083 00000+0 11442-3 0 9995 2 39075 52.0090 316.0362 0000691 113.6689 246.4250 12.62264205627494 GLOBALSTAR M078 1 39076U 13005E 26248.09875815 -.00000111 00000+0 -42691-4 0 9999 2 39076 51.9883 40.2566 0001640 87.1193 272.9862 12.62260236626105 GLOBALSTAR M095 1 39077U 13005F 26248.12533029 -.00000112 00000+0 -43946-4 0 9997 2 39077 52.0088 37.8909 0001170 102.6961 257.4037 12.62264503625968 GLOBALSTAR M087 1 52888U 22064A 26248.13844749 -.00000099 00000+0 24987-4 0 9999 2 52888 51.9990 179.0460 0000586 86.2630 273.8304 12.62262668201233